Regional Weather Roundup
Issued by NWS Wakefield, VA

Home | Current Version | Previous Version | Graphics & Text | Print | Product List | Glossary On
Versions: 1 2 3 4 5 6 7 8 9 10 11 12 13 14 15 16 17 18 19 20 21 22 23 24 25 26 27 28 29 30 31 32 33 34 35 36 37 38 39 40 41 42 43 44 45 46 47 48 49 50
000
ASUS41 KAKQ 050114
RWRAKQ

REGIONAL WEATHER ROUNDUP
NATIONAL WEATHER SERVICE WAKEFIELD VA
900 PM EDT MON MAY 04 2015

Note: "fair" indicates few or no clouds below 12,000 feet with no
significant weather and/or obstructions to visibility. * = Denotes
station may not report precipitation (e.g., rain,snow,etc.),
thunder or fog.

VAZ042-051-052>054-056-050200-
NORTHERN VIRGINIA

CITY           SKY/WX    TMP DP  RH WIND       PRES   REMARKS
WASH NATIONAL  PTCLDY    74  55  51 S9        30.17R
DULLES         PTCLDY    75  50  41 S6        30.17R
FORT BELVOIR   CLEAR     68  55  62 VRB3      30.17R
QUANTICO       CLEAR     69  59  70 S9        30.18R
FREDERICKSBRG* CLEAR     77  54  44 S7        30.18R
STAFFORD*      CLEAR     73  48  41 S3        30.22R
WARRENTON      CLEAR     73  55  52 S5        30.17R
CULPEPER*      NOT AVBL
MANASSAS*      CLEAR     72  54  53 S6        30.17R
LEESBURG*      PTCLDY    77  54  44 S12       30.18R
WINCHESTER     CLOUDY    73  43  33 S5        30.16R
FRONT ROYAL*   FAIR      73  50  43 S5        30.15R
LURAY*         FAIR      73  52  46 SW6       30.18R
$$

VAZ048-049-060>072-079>083-050200-
CENTRAL AND SOUTH CENTRAL VIRGINIA

CITY           SKY/WX    TMP DP  RH WIND       PRES   REMARKS
RICHMOND       PTCLDY    71  52  50 S9        30.22R
CHESTERFIELD*  FAIR      72  48  43 S6        30.24R
PETERSBURG*    CLEAR     72  50  46 S3        30.24R
HANOVER        CLEAR     73  53  49 S7        30.22R
TAPPAHANNOCK*  CLEAR     73  47  39 S5        30.22R
QUINTON*       FAIR      73  53  49 S5        30.22R
CHARLOTTSVILLE CLEAR     71  51  49 S8        30.18R
GORDONSVILLE*  FAIR      67  55  65 CALM      30.18R
ORANGE*        CLEAR     73  52  46 CALM      30.20R
LOUISA*        CLEAR     73  54  49 S3        30.19R
BUMPASS*       FAIR      73  53  51 S3        30.20R
FARMVILLE*     CLEAR     73  55  53 S6        30.21R
CREWE*         FAIR      71  52  52 S5        30.23R
FORT PICKETT*  FAIR      69  54  58 S8        30.23R
CHASE CITY*    FAIR      72  58  60 S3        30.24R
CLARKSVILLE*   FAIR      64  55  72 S5        30.24R
SOUTH HILL*    CLEAR     68  54  60 CALM      30.30R
LAWRENCEVILLE* FAIR      69  54  57 S3        30.25R
EMPORIA*       CLEAR     68  52  56 SE3       30.27R
$$

VAZ088>098-050200-
SOUTHEAST VIRGINIA

CITY           SKY/WX    TMP DP  RH WIND       PRES   REMARKS
NORFOLK        CLEAR     72  47  40 S8        30.26R
VIRGINIA BEACH PTCLDY    74  51  44 S7        30.27R
NORFOLK NAVAL  CLEAR     78  49  35 S8        30.27R
WEST POINT*    CLEAR     73  50  43 S5        30.24R
SALUDA*        FAIR      69  54  58 SE6       30.23R
NEWPORT NEWS   CLEAR     75  50  41 S8        30.25R
LANGLEY AFB    CLEAR     73  50  45 S8        30.24R
FORT EUSTIS    CLEAR     71  53  51 S7        30.23R
WILLIAMSBURG*  CLEAR     75  55  50 S7        30.25R
HR EXEC AP*    FAIR      72  48  43 S9        30.28R
FRANKLIN*      CLEAR     68  50  53 S7        30.27R
WAKEFIELD      CLEAR     68  53  58 S3        30.25R
$$

VAZ020-022-025-037-045-050200-
WEST CENTRAL AND SOUTHWEST VIRGINIA

CITY           SKY/WX    TMP DP  RH WIND       PRES   REMARKS
STAUNTON*      PTCLDY    72  49  45 S7        30.22R
WAYNESBORO*    FAIR      70  50  49 S6        30.22R
HOT SPRINGS VA CLEAR     64  46  53 S7        30.31R
LYNCHBURG      CLEAR     66  53  63 S6        30.24R
DANVILLE       CLEAR     71  52  50 S5        30.24R
SOUTH BOSTON*  FAIR      69  53  58 MISG      30.23S
MARTINSVILLE   CLEAR     64  55  71 CALM      30.27R
ROANOKE        PTCLDY    70  50  49 S7        30.24R
BLACKSBURG     CLEAR     67  50  54 S3        30.29S
DUBLIN*        PTCLDY    68  51  55 SW6       30.28R
MARION*        CLEAR     67  44  43 CALM      30.31R
HILLSVILLE*    PTCLDY    65  51  58 S6        30.30S
RICHLANDS*     FAIR      69  40  35 SW6       30.29R
WISE*          CLEAR     64  41  42 SW3       30.30S
ABINGDON*      CLEAR     69  46  43 W3        30.27S
$$

MDZ021>025-VAZ099-100-050200-
SOUTHERN MARYLAND AND THE DELMARVA PENINSULA

CITY           SKY/WX    TMP DP  RH WIND       PRES   REMARKS
PATUXENT RIVER PTCLDY    69  50  50 S8        30.20R
BAY BRIDGE APT   N/A    N/A N/A N/A S14       30.19R
LEONARDTOWN    NOT AVBL
DOVER          PTCLDY    73  48  40 SW3       30.17R
GEORGETOWN     CLEAR     70  43  37 S15       30.23R
EASTON         CLEAR     73  50  43 S13G18    30.24R
CAMBRIDGE      CLEAR     72  48  43 S10G18    30.21R
SALISBURY      CLEAR     68  44  42 S10       30.23R
OCEAN CITY     CLEAR     64  52  64 SW12G21   30.26R
WALLOPS ISLAND CLEAR     62  52  69 S14       30.26R
ACCOMACK*      CLEAR     64  52  63 S12G18    30.25S
$$

NCZ012>017-030>032-050200-
NORTH CENTRAL AND EASTERN NORTH CAROLINA

CITY           SKY/WX    TMP DP  RH WIND       PRES   REMARKS
ROANOKE RAPIDS FAIR      68  52  56 S3        30.26R
RALEIGH        PTCLDY    71  52  50 S6        30.27R
ELIZABETH CITY CLEAR     69  53  56 S9        30.29R
AHOSKIE*       CLEAR     64  53  67 S3        30.28R
EDENTON*       CLEAR     69  56  62 S9        30.30R
CURRITUCK*     CLEAR     71  51  49 S5        30.30R
KILL DEVIL HLS CLEAR     67  56  67 S5        30.31R
MANTEO         CLEAR     66  59  78 S9        30.32R
CAPE HATTERAS  CLEAR     64  59  83 SW7       30.34R
TARBORO*       FAIR      72  52  49 S7        30.29R
GOLDSBORO      CLEAR     70  54  56 S8        30.28R
WASHINGTON     CLEAR     69  52  55 S6        30.32R
GREENVILLE     CLEAR     70  54  56 S10       30.31R
NEW BERN       CLEAR     67  52  58 S5        30.33R
WILMINGTON     CLEAR     66  55  67 SE5       30.32R
$$

VAZ048-050200-
ELSEWHERE

CITY           SKY/WX    TMP DP  RH WIND       PRES   REMARKS
HARRISBURG PA  PTCLDY    77  47  34 VRB5      30.12R
BALTIMORE      PTCLDY    72  50  45 SE5       30.17R
ANNAPOLIS      CLEAR     68  52  56 S16G25    30.18R
ANDREWS AFB    CLEAR     70  52  53 S9        30.17R
PHILADELPHIA   PTCLDY    76  43  30 S8        30.17R
HENDERSON NC   CLEAR     68  51  53 S6        30.26R
GREENSBORO     PTCLDY    71  49  45 S5        30.25R
ROCKY MOUNT    CLEAR     72  53  51 S8        30.28R
$$

VAZ100-050200-
MARINE

STATION/POSITION TIME  TEMP    WIND        PRES    WAVE   SWELL
                       AIR SEA DIR/SP/G            HT/PER HT/PER
                 (UTC) (F)     (DEG/KT/KT) (MB)    (FT/S) (FT/S)
BRANDYWINE LGT   0012   67 56  190/ 19/ 21 1022.7
CAPE MAY NJ      0012   66 63  170/ 12/ 16 1022.6R
LEWES DE         0000   74 58  200/  7/ 11 1022.9R
15NM E FENWICK I 0050   56 53              1023.8R   3/ 9
OCEAN-CITY-INLET 0012   58 55  210/ 15/ 18 1023.9
WACHAPREAGUE VA  0000   66 69  210/ 10/ 14 1024.3R
THOMAS POINT MD  0100   67 58  170/ 25/ 27 1022.4R
GOOSES REEF MD   0100   63 59                N/A     1
COVE POINT MD    0012   66     190/ 17/ 19 1023.2R
SOLOMONS ISLAND  0000      63                N/A
BISHOPS HEAD MD  0012   67 71  160/ 14/ 15 1022.7R
PINEY POINT MD   0000          170/ 11/ 13   N/A
CAMBRIDGE MD     0012   72 62  170/  7/ 13 1022.5R
LEWISETTA VA     0000   72 66              1022.5R
RAPPAHANNOCK LGT 0000          150/ 15/ 16 1024.2R
YORK RVR RNG VA  0012   71     200/ 13/ 14 1023.1R
YORKTOWN VA      0012   75 62  190/  6/  8 1023.4R
JAMESTOWN VA     0100   71 66  180/  6/  8 1023.1R
DOMINION TERM VA 0000   73     190/  9/ 10 1024.0R
KIPTOPEKE VA     0000      67  170/ 15/ 18   N/A
CHES BAY BRIDGE  0012   70 59  140/ 11/ 13 1024.0R
CAPE HENRY VA    0000   71     160/  6/  8 1023.2R
CHESAPEAKE LGHT  0000   61     180/ 26/ 27 1024.4R
WILLOUBY STN VA  0000   77     200/ 12/ 13 1024.7R
S CRANEY ISL VA  0000          190/  5/  8 1024.1R
CAPE HENRY BUOY  0028      55                N/A     3/11   2/11
1ST LANDING BUOY 0100      61                N/A     1/ 3
CAPE CHARLES BUO 0026      57                N/A     3/11   2/11
OFFSHORE WE BUOY 0011      53                N/A     3/12   3/12
64NM E OF VA BCH 0050   65 62  190/ 12/ 14 1025.7R   3/10   3/10
DUCK PIER NC     0012   71 53  180/ 14/ 18 1024.5R
44056 DUCK FRF   0011      59                N/A     3/12   2/12
OREGON INLET NC  0012   68 70  180/ 11/ 13 1026.3R
HATTERAS NC      0012   69 68  210/  6/  8 1026.3R
DIAMOND SHLS NC  0050   74 78  200/ 12/ 16 1027.2R   3/10   3/10
CAPE LOOKOUT NC  0100   69     180/  7/  7 1027.0R
$$


USA.gov is the U.S. government's official web portal to all federal, state and local government web resources and services.